TimePST,TemperatureF,Dew PointF,Humidity,Sea Level PressureIn,VisibilityMPH,Wind Direction,Wind SpeedMPH,Gust SpeedMPH,PrecipitationIn,Events,Conditions,WindDirDegrees,DateUTC
12:53 AM,15.1,12.0,88,30.38,10.0,SSE,11.5,-,N/A,,Clear,160,2013-01-09 08:53:00
1:53 AM,12.9,10.9,92,30.38,10.0,South,9.2,-,N/A,,Clear,170,2013-01-09 09:53:00
2:53 AM,12.0,8.1,84,30.39,10.0,SSE,10.4,-,N/A,,Clear,160,2013-01-09 10:53:00
3:53 AM,12.2,10.4,92,30.28,10.0,SE,8.1,-,N/A,,Clear,130,2013-01-09 11:53:00
4:53 AM,12.0,8.1,84,30.40,10.0,SSE,11.5,-,N/A,,Clear,150,2013-01-09 12:53:00
5:53 AM,12.9,10.0,88,30.39,10.0,SSE,10.4,-,N/A,,Clear,160,2013-01-09 13:53:00
6:53 AM,12.0,9.0,88,30.40,10.0,South,3.5,-,N/A,,Clear,180,2013-01-09 14:53:00
7:53 AM,19.9,14.0,78,30.37,10.0,SE,6.9,-,N/A,,Clear,140,2013-01-09 15:53:00
8:53 AM,21.9,16.0,78,30.35,10.0,SSE,4.6,-,N/A,,Clear,150,2013-01-09 16:53:00
9:53 AM,37.9,23.0,55,30.25,10.0,SSW,15.0,-,N/A,,Clear,210,2013-01-09 17:53:00
10:53 AM,41.0,25.0,53,30.17,10.0,SSW,23.0,29.9,N/A,,Clear,200,2013-01-09 18:53:00
11:53 AM,44.1,24.1,45,30.11,10.0,SW,20.7,29.9,N/A,,Clear,220,2013-01-09 19:53:00
12:53 PM,43.0,26.1,51,30.08,10.0,South,11.5,-,N/A,,Clear,180,2013-01-09 20:53:00
1:53 PM,44.1,25.0,47,30.05,10.0,SW,11.5,27.6,N/A,,Clear,230,2013-01-09 21:53:00
2:41 PM,42.8,26.6,53,29.98,10.0,SSE,24.2,32.2,N/A,,Clear,160,2013-01-09 22:41:00
2:53 PM,42.1,26.1,53,30.02,10.0,SSE,24.2,33.4,N/A,,Clear,160,2013-01-09 22:53:00
3:53 PM,39.9,25.0,55,29.99,10.0,SSE,28.8,38.0,N/A,,Clear,150,2013-01-09 23:53:00
4:53 PM,41.0,24.1,51,29.97,10.0,SE,28.8,42.6,N/A,,Clear,140,2013-01-10 00:53:00
5:53 PM,39.0,24.1,55,29.97,10.0,SSE,25.3,33.4,N/A,,Clear,160,2013-01-10 01:53:00
6:53 PM,39.0,24.1,55,29.96,10.0,SSE,23.0,36.8,N/A,,Clear,150,2013-01-10 02:53:00
7:53 PM,37.9,24.1,57,29.91,10.0,South,19.6,29.9,N/A,,Clear,170,2013-01-10 03:53:00
8:53 PM,39.0,23.0,53,29.86,10.0,SSE,20.7,36.8,N/A,,Clear,160,2013-01-10 04:53:00
9:53 PM,39.0,24.1,55,29.77,10.0,SSE,18.4,33.4,N/A,,Clear,160,2013-01-10 05:53:00
10:53 PM,37.9,24.1,57,29.71,10.0,SE,32.2,44.9,N/A,,Mostly Cloudy,130,2013-01-10 06:53:00
11:53 PM,37.9,24.1,57,29.68,10.0,SE,29.9,42.6,N/A,,Overcast,140,2013-01-10 07:53:00